This demonstration page uses our WeatherBlox Daily Observations layout. Learn more.

Left ArrowRight Arrow

Hourly Observations for February 28, 2015

Temp ( °F °C ) Dew Point ( °F °C ) Humidity (%) Winds ( mph kmh ) Pressure ( in mb ) Visibility ( mi km ) Precip ( " mm )
12:53 am 00:53 Mostly Cloudy 49 9.4 35 1.7 59 59 NNW 5 7 29.66 1004 10 16 0.00 0.00
1:53 am 01:53 Mostly Clear 44 6.7 37 2.8 76 76 Calm 29.67 1005 10 16 0.00 0.00
2:53 am 02:53 Clear 47 8.3 36 2.2 66 66 N 6 9 29.67 1005 10 16 0.00 0.00
3:53 am 03:53 Clear 46 7.8 37 2.8 71 71 N 5 7 29.68 1005 10 16 0.00 0.00
4:53 am 04:53 Clear 47 8.3 37 2.8 69 69 N 5 7 29.69 1005 10 16 0.00 0.00
5:53 am 05:53 Clear 42 5.6 38 3.3 85 85 Calm 29.71 1006 10 16 0.00 0.00
6:53 am 06:53 Sunny 40 4.4 36 2.2 86 86 Calm 29.74 1007 10 16 0.00 0.00
7:53 am 07:53 Sunny 44 6.7 37 2.8 76 76 Calm 29.77 1008 10 16 0.00 0.00
8:53 am 08:53 Sunny 49 9.4 40 4.4 71 71 Calm 29.78 1009 10 16 0.00 0.00
9:53 am 09:53 Sunny 54 12.2 39 3.9 57 57 Calm 29.79 1009 10 16 0.00 0.00
10:53 am 10:53 Sunny 59 15 37 3 45 45 NNE 7 11 29.80 1009 10 16 0.00 0.00
11:53 am 11:53 Sunny 63 17.2 34 1.1 34 34 NNE 14 22 29.79 1009 10 16 0.00 0.00
12:53 pm 12:53 Mostly Cloudy 65 18.3 34 1.1 32 32 NNE 20 31 29.78 1009 10 16 0.00 0.00
1:53 pm 13:53 Mostly Cloudy 62 16.7 32 0 32 32 NNE 20 31 29.79 1009 10 16 0.00 0.00
2:53 pm 14:53 Mostly Sunny 64 17.8 33 0.6 32 32 NNE 22 35 29.79 1009 10 16 0.00 0.00
3:53 pm 15:53 Partly Cloudy 62 16.7 33 0.6 34 34 NNE 16 26 29.80 1009 10 16 0.00 0.00
4:53 pm 16:53 Cloudy 61 16.1 32 0 34 34 NNE 12 19 29.82 1010 10 16 0.00 0.00
5:53 pm 17:53 Cloudy 59 15 33 0.6 38 38 NNE 12 19 29.85 1011 10 16 0.00 0.00
6:53 pm 18:53 Cloudy 58 14.4 31 -0.6 36 36 NNE 16 26 29.88 1012 10 16 0.00 0.00
7:53 pm 19:53 Mostly Cloudy 56 13.3 31 -0.6 39 39 NNE 12 19 29.91 1013 10 16 0.00 0.00
8:53 pm 20:53 Clear 54 12.2 30 -1.1 40 40 NNE 14 22 29.93 1014 10 16 0.00 0.00
9:53 pm 21:53 Clear 54 12.2 29 -1.7 38 38 N 21 33 29.95 1014 10 16 0.00 0.00
10:53 pm 22:53 Clear 53 11.7 28 -2.2 38 38 NNE 20 31 29.97 1015 10 16 0.00 0.00
11:53 pm 23:53 Clear 53 11.7 26 -3.3 35 35 N 15 24 29.98 1015 10 16 0.00 0.00

Powered by AerisWeather